Find Starlink 31515

NORAD ID: 59476 Int'l Des: 2024-068 Owner: SPXS Country: US Constellation: starlink operational
LEOCIRCULAR

当前视图

正在加载3D地球...

About Starlink 31515

Starlink 31515 (NORAD 59476) is a starlink constellation satellite (v2 mini) launched Apr 10, 2024 by SPXS of US. It operates in LEO, CIRCULAR orbit with a mass of 730.00 kg.

即将过境

Passes for default location (London). Set your location on the main map for personalized predictions.

高度历史

Loading altitude history...

两行轨道根数

1 59476U 24068X 26263.02229558 .00000795 00000-0 38419-4 0 9993
2 59476 43.0038 17.0016 0001172 277.6848 82.3871 15.27579599138245
Epoch: Sep 20, 2026 • Age: 17 hours

当前状态

高度 493.7 km
远地点 / 近地点 N/A
速度 7.62 km/s
星下点 -38.44°S, 52.87°E
发射日期 Apr 10, 2024
运行时间 2.4 years
类型 internet

技术详情

分类 Payload
质量 730.00 kg
干质量 700.00 kg
长度 0.30 m
跨度 29.00 m
形状 ? Box + pan
制造商 SPXS
平台类型 Starlink V2M
阶段状态 In Orbit
所有者/国家 SPXS/US

Most Searched